Location: Ariel
(45.9570°N, 122.5700°W)
Time: 07:16:28
(UTC-08:00)

Transit 4A - Pass Details

Date: 29 October 2020
Orbit: 862 x 982 km, 66.8° (Epoch: 03 December)

Event Time Altitude Azimuth Distance (km) Brightness Sun altitude
Rises 18:51:50 0° 279° (W) 3,646 12.6 -9.6°
Reaches altitude 10° 18:55:36 10° 301° (WNW) 2,720 11.1 -10.2°
Maximum altitude 18:59:16 16° 337° (NNW) 2,348 10.2 -10.8°
Drops below altitude 10° 19:02:58 10° 13° (NNE) 2,744 10.2 -11.5°
Enters shadow 19:06:31 - 33° (NNE) 3,614 10.6 -12.1°
